Location: Brudzew
(52.0976°N, 18.6049°E)
Time: 23:01:50
(UTC+02:00)

ISS - Pass Details

Date: 26 September 2018
Orbit: 403 x 408 km, 51.6° (Epoch: 17 October)

Event Time Altitude Azimuth Distance (km) Brightness Sun altitude
Rises 20:08:31 0° 241° (WSW) 2,334 0.7 -15.0°
Reaches altitude 10° 20:10:38 10° 236° (SW) 1,474 -0.5 -15.3°
Maximum altitude 20:13:50 50° 160° (SSE) 532 -3.5 -15.8°
Enters shadow 20:14:33 41° 117° (ESE) 613 -3.4 -15.9°
